Tracking 31011 objects as of 13-Jul-2025
HD Live streaming from Space Station
objects crossing your sky now

SL-14 DEB

Track SL-14 DEB now!
10-day predictions


NORAD ID: 26008
Int'l Code: 1991-068T
Perigee: 1,345.0 km
Apogee: 1,489.3 km
Inclination: 82.6 °
Period: 114.0 minutes
Semi major axis: 7788 km
RCS: 0.1445 m2 (medium)
Launch date: September 28, 1991
Source: Commonwealth of Independent States (former USSR) (CIS)
Launch site: PLESETSK MISSILE AND SPACE COMPLEX (PKMTR)

Note: This is SATELLITE DEBRIS
Your satellite tracking list
Your tracking list is empty




NASA's NSSDC Master Catalog

Two Line Element Set (TLE):
1 26008U 91068T   25194.12353310  .00000027  00000-0  84296-4 0  9991
2 26008  82.6264 244.2997 0092661 127.9196 261.3980 12.63142401187449
Source of the keplerian elements: AFSPC